Location: Gensac
(43.2177°N, 1.1313°E)
Time: 01:23:10
(UTC+00:00)

Helios 1A Rocket - Pass Details

Date: 08 December 2025
Orbit: 433 x 442 km, 98.3° (Epoch: 17 January)

Event Time Altitude Azimuth Distance (km) Brightness Sun altitude
Rises 04:53:26 0° 144° (SE) 2,400 6.7 -24.9°
Reaches altitude 10° 04:55:34 10° 134° (SE) 1,539 5.8 -24.5°
Maximum altitude 04:58:31 31° 70° (ENE) 790 4.1 -24.0°
Enters shadow 04:59:29 26° 37° (NE) 903 4.1 -23.8°
